FENGYUN 1C DEB, 35202

Orbit data source: Space-Track

FENGYUN 1C DEB, 35202 is space debris in SSO originally from a launch on Mon, 10 May 1999 UTC launched from the Taiyaun Space Center, China (TSC). Fengyun 1C debris stems from the Chinese weather satellite Fengyun-1C, which was intentionally destroyed by a Chinese anti-satellite missile in 2007. This event dramatically increased the amount of space debris, with thousands of trackable fragments posing hazards to satellites and human spaceflight. The Fengyun 1C debris cloud has become a focal point in discussions about space sustainability and the need for international regulations to prevent the creation of new debris.

Loading next visibility...
Identifier
35202, 1999-025DPJ
Orbit
SSO
Country
Flag of CNCN / PRC
Related business
Manufacturer
Unknown
Mission
Spacecraft
Bus & Motor
Unknown
Mass
Unknown
Launch date (UTC)
1999-05-10 (27 years ago)
Launch vehicle
Unknown
Launch site
Taiyaun Space Center, China (TSC)
Object type
Payload
Rocket body
Debris
Shape & HBR
Unknown shape, 0.1 m
Radar Cross Section
Medium (>0.1 m² and <1 m²)

Expand to show TLE details & history
Last TLE update: 3 days ago

TLE from 3 days ago
0 FENGYUN 1C DEB
1 35202U 99025DPJ 26205.58787945  .00000866  00000-0  11986-2 0  9992
2 35202 100.0695 252.8885 0379658 192.7910 166.3369 13.35026833599630
Epoch: 2026-07-24T14:06Z
TLE epoch observation values (Epoch: 2026-07-24T14:06:32.784Z)
Latitude
-0.00002°
Longitude
98.93954°
Altitude
1,408.146 km
Speed
7.023 km/s
True Right ascension
16h 51m 33s
True Declination
0° 00' 00"
Sunlit
Object was in full shadow at epoch
Visualization orbit readout
Latitude
Unknown
Longitude
Unknown
Altitude
Unknown
Speed
Unknown
Apparent Right ascension
Unknown
Apparent Declination
Unknown
Sunlit
N/A
Visualization observer readout
Local Sidereal Time
20:29:47
Azimuth
Unknown
Elevation
Unknown
Doppler factor
Unknown
Orbital elements
Apogee altitude
1,410.067 km
Perigee altitude
840.327 km
Semi-major axis
7,503.334 km
Eccentricity
0.03797
Inclination
100.0695°
RAAN
252.8885°
Arg. of periapsis
192.791°
True anomaly
167.31913°
Mean anomaly
166.3369°
Eccentric anomaly
166.83243°
Mean motion
3.33935 °/min
Orbital period
107.81 mins
BSTAR
0.0011986
Loading maneuver chart data...
Computing Atmospheric mass density...

Documentation

Showing up to 5 results
|